FW5120 Weather Reports


time (UTC)temp
C
wind
direction
speed
KPH
gust
KPH
rain 1hr
cm
rain 24hr
cm
rain mn
cm
humidity
%
barometer
mb
20260505073004 20 274 4.8 16.1 0.00 0.00 0.00 59 1015.8
20260505071501 20 207 1.6 9.7 0.00 0.00 0.00 65 1015.8
20260505070058 18 202 1.6 6.4 0.00 0.00 0.00 66 1016.0
20260505064555 18 277 1.6 8.0 0.00 0.00 0.00 66 1016.2
20260505063055 17 225 4.8 14.5 0.00 0.00 0.00 67 1016.1
20260505061557 17 225 3.2 11.3 0.00 0.00 0.00 70 1016.0
20260505060049 16 267 1.6 8.0 0.00 0.00 0.00 75 1016.1
20260505054607 14 263 1.6 4.8 0.00 0.00 0.00 80 1016.1
20260505053056 13 280 0.0 4.8 0.00 0.00 0.00 81 1016.1
20260505051539 12 328 0.0 3.2 0.00 0.00 0.00 86 1016.1
20260505041531 7 270 0.0 1.6 0.00 0.00 0.00 91 1016.2
20260505040031 7 270 0.0 1.6 0.00 0.00 0.00 91 1016.0
20260505034530 7 270 0.0 1.6 0.00 0.00 0.00 91 1016.0
20260505033029 7 270 0.0 3.2 0.00 0.00 0.00 91 1016.1
20260505031541 7 270 0.0 3.2 0.00 0.00 0.00 90 1016.0
20260505030027 8 250 0.0 1.6 0.00 0.00 0.00 90 1016.1
20260505024534 8 250 0.0 3.2 0.00 0.00 0.00 90 1016.2
20260505023028 8 250 0.0 1.6 0.00 0.00 0.00 90 1016.3
20260505021526 8 250 0.0 1.6 0.00 0.00 0.00 90 1016.4
20260505020030 8 250 0.0 4.8 0.00 0.00 0.00 91 1016.4
20260505014527 7 250 0.0 3.2 0.00 0.00 0.00 91 1016.5
20260505013024 7 250 0.0 3.2 0.00 0.00 0.00 91 1016.5
20260505011530 7 250 0.0 1.6 0.00 0.00 0.00 90 1016.5
20260505010017 7 250 0.0 1.6 0.00 0.00 0.00 90 1016.6
20260505004534 7 250 0.0 3.2 0.00 0.00 0.00 90 1016.6
20260505003015 7 248 0.0 3.2 0.00 0.00 0.00 90 1016.9
20260505001515 7 248 0.0 1.6 0.00 0.00 0.00 90 1017.0
20260505000022 7 248 0.0 1.6 0.00 0.00 0.00 89 1017.0
20260504234509 8 248 0.0 1.6 0.00 0.00 0.00 89 1017.2
20260504233008 8 248 0.0 1.6 0.00 0.00 0.00 89 1017.2
20260504231505 8 248 0.0 1.6 0.00 0.00 0.00 88 1017.2
20260504230005 8 250 1.6 3.2 0.00 0.00 0.00 88 1017.2
20260504224501 8 250 0.0 3.2 0.00 0.00 0.00 87 1017.3
20260504223105 8 250 0.0 1.6 0.00 0.00 0.00 86 1017.5
20260504221605 9 249 0.0 3.2 0.00 0.00 0.00 85 1017.5
20260504220058 10 249 0.0 1.6 0.00 0.00 0.00 84 1017.5
20260504214556 10 250 0.0 4.8 0.00 0.00 0.00 84 1017.5
20260504213053 10 251 0.0 1.6 0.00 0.00 0.00 82 1017.6
20260504211552 11 251 0.0 1.6 0.00 0.00 0.00 79 1017.6
20260504210054 12 251 0.0 1.6 0.00 0.00 0.00 76 1017.5
20260504204555 13 251 0.0 1.6 0.00 0.00 0.00 72 1017.5
20260504203101 13 251 1.6 6.4 0.00 0.00 0.00 71 1017.4
20260504201551 13 259 0.0 4.8 0.00 0.00 0.00 71 1017.3
20260504200050 15 259 0.0 0.0 0.00 0.00 0.00 66 1017.3
20260504194549 15 257 0.0 0.0 0.00 0.00 0.00 63 1017.2
20260504193049 15 248 0.0 0.0 0.00 0.00 0.00 62 1017.2
20260504191548 16 219 0.0 8.0 0.00 0.00 0.00 60 1017.1
20260504190048 17 201 3.2 14.5 0.00 0.00 0.00 57 1016.9
20260504184548 18 249 3.2 14.5 0.00 0.00 0.00 54 1016.8
20260504183047 18 248 1.6 11.3 0.00 0.00 0.00 54 1016.6
20260504181549 18 225 1.6 12.9 0.00 0.00 0.00 53 1016.4
20260504180046 19 246 6.4 11.3 0.00 0.00 0.00 51 1016.4
20260504174545 20 297 8.0 14.5 0.00 0.00 0.00 49 1016.1
20260504173045 21 272 6.4 16.1 0.00 0.00 0.00 49 1016.1
20260504171644 21 269 6.4 14.5 0.00 0.00 0.00 47 1016.0
20260504100103 22 111 0.0 6.4 0.00 0.00 0.00 57 1019.1
20260504081541 19 18 1.6 9.7 0.00 0.00 0.00 68 1019.8